Hourly Weather Bolshoy Umys

Today, 6 August, Friday

Time Temperature Precipitation Wind Pressure Humidity
00:00 +17°C° 0 mm 2 mps 745 mmHg 63%
01:00 +17°C° 0 mm 2 mps 745 mmHg 63%
02:00 +16°C° 0 mm 2 mps 745 mmHg 63%
03:00 +16°C° 0 mm 2 mps 745 mmHg 62%
04:00 +18°C° 0 mm 1 mps 745 mmHg 62%
05:00 +18°C° 0 mm 1 mps 745 mmHg 63%
06:00 +19°C° 0 mm 1 mps 745 mmHg 63%
07:00 +21°C° 0 mm 1 mps 745 mmHg 56%
08:00 +23°C° 0 mm 1 mps 745 mmHg 50%
09:00 +25°C° 0 mm 2 mps 745 mmHg 44%
10:00 +26°C° 0 mm 1 mps 745 mmHg 41%
11:00 +27°C° 0 mm 1 mps 745 mmHg 39%
12:00 +26°C° 0 mm 0 mps 745 mmHg 37%
13:00 +26°C° 0 mm 0 mps 745 mmHg 36%
14:00 +29°C° 0 mm 1 mps 745 mmHg 36%
15:00 +29°C° 0 mm 1 mps 744 mmHg 36%
16:00 +28°C° 0 mm 1 mps 744 mmHg 40%
17:00 +28°C° 0 mm 1 mps 744 mmHg 44%
18:00 +27°C° 0 mm 2 mps 744 mmHg 48%
19:00 +25°C° 0 mm 2 mps 744 mmHg 50%
20:00 +23°C° 0 mm 2 mps 744 mmHg 52%
21:00 +20°C° 0 mm 3 mps 744 mmHg 54%
22:00 +20°C° 0 mm 3 mps 744 mmHg 54%
23:00 +19°C° 0 mm 3 mps 744 mmHg 54%

Tomorrow, 7 August, Saturday

Time Temperature Precipitation Wind Pressure Humidity
00:00 +19°C° 0 mm 3 mps 744 mmHg 54%
01:00 +18°C° 0 mm 3 mps 744 mmHg 53%
02:00 +18°C° 0 mm 3 mps 744 mmHg 52%
03:00 +17°C° 0 mm 3 mps 744 mmHg 51%
04:00 +18°C° 0 mm 3 mps 744 mmHg 52%
05:00 +18°C° 0 mm 2 mps 744 mmHg 53%
06:00 +18°C° 0 mm 2 mps 744 mmHg 54%
07:00 +21°C° 0 mm 3 mps 744 mmHg 48%
08:00 +24°C° 0 mm 3 mps 745 mmHg 43%
09:00 +26°C° 0 mm 3 mps 745 mmHg 37%
10:00 +27°C° 0 mm 3 mps 745 mmHg 35%
11:00 +28°C° 0 mm 3 mps 744 mmHg 32%
12:00 +30°C° 0 mm 3 mps 744 mmHg 30%
13:00 +30°C° 0 mm 3 mps 744 mmHg 30%
14:00 +30°C° 0 mm 3 mps 744 mmHg 30%
15:00 +31°C° 0 mm 3 mps 744 mmHg 30%
16:00 +30°C° 0 mm 3 mps 744 mmHg 35%
17:00 +29°C° 0 mm 2 mps 744 mmHg 40%
18:00 +28°C° 0 mm 2 mps 744 mmHg 44%
19:00 +26°C° 0 mm 2 mps 744 mmHg 45%
20:00 +24°C° 0 mm 2 mps 744 mmHg 46%
21:00 +21°C° 0 mm 3 mps 744 mmHg 47%
22:00 +21°C° 0 mm 3 mps 744 mmHg 46%
23:00 +21°C° 0 mm 3 mps 744 mmHg 46%

Day after tomorrow, 8 August, Sunday

Time Temperature Precipitation Wind Pressure Humidity
00:00 +20°C° 0 mm 3 mps 744 mmHg 45%
01:00 +20°C° 0 mm 3 mps 744 mmHg 45%
02:00 +19°C° 0 mm 3 mps 745 mmHg 46%
03:00 +19°C° 0 mm 3 mps 745 mmHg 46%
04:00 +19°C° 0 mm 3 mps 745 mmHg 48%
05:00 +20°C° 0 mm 3 mps 745 mmHg 49%
06:00 +20°C° 0 mm 3 mps 745 mmHg 51%
07:00 +22°C° 0 mm 3 mps 745 mmHg 46%
08:00 +25°C° 0 mm 4 mps 745 mmHg 41%
09:00 +27°C° 0 mm 5 mps 746 mmHg 36%
10:00 +29°C° 0 mm 4 mps 745 mmHg 33%
11:00 +32°C° 0 mm 4 mps 745 mmHg 29%
12:00 +33°C° 0 mm 4 mps 745 mmHg 26%
13:00 +34°C° 0 mm 4 mps 746 mmHg 25%
14:00 +34°C° 0 mm 3 mps 746 mmHg 25%
15:00 +34°C° 0 mm 3 mps 746 mmHg 25%
16:00 +33°C° 0 mm 3 mps 746 mmHg 30%
17:00 +30°C° 0 mm 3 mps 746 mmHg 35%
18:00 +28°C° 0 mm 2 mps 745 mmHg 40%
19:00 +27°C° 0 mm 2 mps 746 mmHg 40%
20:00 +27°C° 0 mm 2 mps 746 mmHg 40%
21:00 +26°C° 0 mm 2 mps 746 mmHg 40%
22:00 +25°C° 0 mm 3 mps 746 mmHg 41%
23:00 +25°C° 0 mm 3 mps 746 mmHg 42%

9 August, Monday

Time Temperature Precipitation Wind Pressure Humidity
00:00 +24°C° 0 mm 3 mps 746 mmHg 44%
01:00 +24°C° 0 mm 2 mps 746 mmHg 44%
02:00 +24°C° 0 mm 2 mps 746 mmHg 45%
03:00 +24°C° 0 mm 2 mps 746 mmHg 46%
04:00 +24°C° 0 mm 2 mps 746 mmHg 49%
05:00 +23°C° 0 mm 2 mps 747 mmHg 52%
06:00 +23°C° 0 mm 2 mps 747 mmHg 54%
07:00 +25°C° 0 mm 2 mps 747 mmHg 50%
08:00 +27°C° 0 mm 2 mps 747 mmHg 45%
09:00 +29°C° 0 mm 2 mps 747 mmHg 41%
10:00 +30°C° 0 mm 2 mps 747 mmHg 38%
11:00 +31°C° 0 mm 2 mps 747 mmHg 36%
12:00 +32°C° 0 mm 2 mps 747 mmHg 34%
13:00 +32°C° 0 mm 2 mps 747 mmHg 33%
14:00 +34°C° 0 mm 2 mps 747 mmHg 32%
15:00 +34°C° 0 mm 2 mps 746 mmHg 31%
16:00 +32°C° 0 mm 2 mps 746 mmHg 36%
17:00 +31°C° 0 mm 2 mps 746 mmHg 41%
18:00 +29°C° 0 mm 1 mps 746 mmHg 46%
19:00 +28°C° 0 mm 1 mps 746 mmHg 47%
20:00 +27°C° 0 mm 1 mps 746 mmHg 49%
21:00 +26°C° 0 mm 2 mps 746 mmHg 50%
22:00 +26°C° 0 mm 2 mps 746 mmHg 49%
23:00 +26°C° 0 mm 2 mps 746 mmHg 48%

10 August, Tuesday

Time Temperature Precipitation Wind Pressure Humidity
00:00 +26°C° 0 mm 2 mps 746 mmHg 47%
01:00 +25°C° 0 mm 2 mps 746 mmHg 47%
02:00 +24°C° 0 mm 2 mps 746 mmHg 47%
03:00 +23°C° 0 mm 2 mps 745 mmHg 47%
04:00 +24°C° 0 mm 2 mps 745 mmHg 48%
05:00 +24°C° 0 mm 2 mps 745 mmHg 49%
06:00 +24°C° 0 mm 1 mps 745 mmHg 50%
07:00 +26°C° 0 mm 2 mps 745 mmHg 44%
08:00 +28°C° 0 mm 2 mps 745 mmHg 39%
09:00 +30°C° 0 mm 2 mps 745 mmHg 34%
10:00 +31°C° 0 mm 3 mps 745 mmHg 32%
11:00 +33°C° 0 mm 3 mps 745 mmHg 30%
12:00 +34°C° 0 mm 3 mps 745 mmHg 28%
13:00 +32°C° 0 mm 2 mps 744 mmHg 33%
14:00 +30°C° 0 mm 2 mps 744 mmHg 38%
15:00 +29°C° 0 mm 2 mps 744 mmHg 43%
16:00 +28°C° 0 mm 2 mps 744 mmHg 46%
17:00 +27°C° 0 mm 3 mps 744 mmHg 50%
18:00 +26°C° 0 mm 3 mps 744 mmHg 53%
19:00 +25°C° 0 mm 3 mps 744 mmHg 56%
20:00 +24°C° 0 mm 3 mps 744 mmHg 60%
21:00 +23°C° 0 mm 2 mps 744 mmHg 63%
22:00 +22°C° 0 mm 3 mps 743 mmHg 65%
23:00 +22°C° 0 mm 3 mps 743 mmHg 67%

11 August, Wednesday

Time Temperature Precipitation Wind Pressure Humidity
00:00 +22°C° 0 mm 4 mps 742 mmHg 69%
01:00 +22°C° 0 mm 4 mps 742 mmHg 72%
02:00 +22°C° 0 mm 3 mps 742 mmHg 76%
03:00 +21°C° 0 mm 3 mps 742 mmHg 80%
04:00 +21°C° 0 mm 3 mps 742 mmHg 80%
05:00 +21°C° 0 mm 3 mps 742 mmHg 80%
06:00 +21°C° 0 mm 3 mps 742 mmHg 80%
07:00 +24°C° 0 mm 3 mps 742 mmHg 73%
08:00 +25°C° 0 mm 4 mps 742 mmHg 65%
09:00 +27°C° 0 mm 5 mps 742 mmHg 58%
10:00 +28°C° 0 mm 5 mps 742 mmHg 54%
11:00 +29°C° 0 mm 5 mps 742 mmHg 50%
12:00 +30°C° 0 mm 5 mps 742 mmHg 46%
13:00 +30°C° 0 mm 5 mps 741 mmHg 44%
14:00 +30°C° 0 mm 5 mps 741 mmHg 43%
15:00 +32°C° 0 mm 5 mps 741 mmHg 42%
16:00 +29°C° 0.2 mm 4 mps 741 mmHg 48%
17:00 +28°C° 0.2 mm 4 mps 741 mmHg 53%
18:00 +27°C° 0.2 mm 3 mps 741 mmHg 59%
19:00 +25°C° 0.7 mm 3 mps 741 mmHg 68%
20:00 +22°C° 0.7 mm 4 mps 741 mmHg 76%
21:00 +20°C° 0.7 mm 4 mps 742 mmHg 85%
22:00 +20°C° 0.4 mm 4 mps 742 mmHg 83%
23:00 +20°C° 0.4 mm 5 mps 741 mmHg 81%
Show more

We Need Your Consent

Meteoprog and our Service Providers may store and access personal data such as cookies, device identifiers or other similar technologies on your device and process such data to personalise content and ads, as well as provide social media features and to analyse the traffic.

  • Store and/or access information on your device

    Cookies, device identifiers or other information can be stored or accessed on your device for the purposes indicated above.

  • Personalised ads and content, ad and content measurement, audience insights, and products development

    Ads and content can be personalised based on a profile. More data can be added to better personalise ads and content. Ad and content performance can be measured. Insights about the audience who saw the ads and content can be derived. Such data can be used to develop or improve user’s experience, systems and software.

By clicking ‘I Agree’ you will allow the use of indicated cookies, device identifiers, web beacons or other similar technologies. Your settings can be changed in the browser on your device.

For certain purposes, legitimate interests may be relied on, rather than consent. You can read more about this in our Privacy and Cookie Policy.